[[{"header":{"parameterUnit":"m.s-1","parameterCategory":2,"la1":30.2991,"la2":30.254,"lo1":-89.0895,"lo2":-89.0444,"dy":0.0017,"dx":0.0017,"nx":28,"ny":28,"refTime":"2023-10-28T21:00:00:Z","depth":"0","parameterNumber":2,"parameterNumberName":"U-component_of_CURRENTS"},"data":[0,0,0,0,0,0,0,0,0,0,0,0,0,0,0,0,0,0,0,0,0,0,0,0,0,0,0,0,0,0,0,0,0,0,0,0,0,0,0,0,0,0,0,0,0,0,0,0,0,0,0,0,0,0,0,0,0,0,-0.2907,-0.2907,0,-0.2895,-0.2895,-0.2895,-0.2859,-0.2859,-0.2859,-0.2858,-0.2806,-0.2805,-0.2804,0,0,0,0,0,0,0,0,0,0,0,0,0,-0.2863,-0.2864,-0.2907,-0.2907,-0.2907,-0.2895,-0.2895,-0.2894,-0.286,-0.2859,-0.2858,-0.2858,-0.2806,-0.2805,-0.2804,0,0,0,0,0,0,0,0,0,0,0,0,0,-0.2866,-0.2864,-0.2907,-0.2891,-0.289,-0.2896,-0.2895,-0.2894,-0.286,-0.2859,-0.2858,-0.2858,-0.2806,-0.2805,-0.2804,-0.2808,0,0,-0.2799,-0.2798,0,0,0,0,0,0,0,0,-0.2866,-0.2867,-0.2893,-0.2892,-0.2891,-0.2881,-0.286,-0.2865,-0.286,-0.2867,-0.2858,-0.2857,-0.283,-0.2827,-0.2821,-0.2805,-0.2803,-0.2799,-0.2798,-0.2797,-0.2797,0,0,0,0,0,0,0,-0.2866,-0.2868,-0.2898,-0.2893,-0.2892,-0.2873,-0.2872,-0.2861,-0.2849,-0.2866,-0.2865,-0.287,-0.2829,-0.2823,-0.282,-0.2802,-0.2799,-0.2798,-0.2797,-0.2796,-0.2844,-0.2846,0,0,0,0,0,0,-0.2878,-0.2868,-0.2899,-0.2899,-0.2881,-0.2874,-0.2874,-0.2882,-0.285,-0.2846,-0.287,-0.2868,-0.2826,-0.2822,-0.2818,-0.2888,-0.2797,-0.2796,-0.2795,-0.2842,-0.2844,-0.2847,0,0,0,0,0,0,-0.2877,-0.2881,-0.2899,-0.2885,-0.2887,-0.2877,-0.2886,-0.2882,-0.2885,-0.2854,-0.2848,-0.2878,-0.2825,-0.282,-0.2828,-0.2883,-0.2795,-0.2794,-0.2839,-0.2843,-0.2846,-0.2985,0,0,0,0,0,0,-0.2876,-0.288,-0.2885,-0.2886,-0.2888,-0.2942,-0.2887,-0.2883,-0.289,-0.2887,-0.2858,-0.2852,-0.2824,-0.283,-0.2826,-0.2879,-0.2793,-0.2837,-0.2841,-0.2845,-0.2977,-0.2992,-0.3005,0,0,0,0,0,-0.2874,-0.2906,-0.2885,-0.2889,-0.2897,-0.2945,-0.2945,-0.2931,-0.2892,-0.2923,-0.2887,-0.2854,-0.2853,-0.2831,-0.2825,-0.2879,-0.2835,-0.284,-0.2844,-0.2971,-0.2989,-0.3005,0,0,0,0,0,0,-0.2888,-0.2905,-0.2883,-0.2915,-0.2939,-0.2941,-0.2958,-0.2941,-0.2936,-0.2917,-0.2874,-0.2868,-0.29,-0.2867,-0.2843,-0.2905,-0.2841,-0.2846,-0.294,-0.2956,-0.297,-0.295,-0.2792,0,0,0,0,0,-0.2892,-0.2916,-0.2933,-0.2956,-0.297,-0.2958,-0.2968,-0.2964,-0.296,-0.2956,-0.2934,-0.2911,-0.2915,-0.2916,-0.291,-0.2938,-0.2856,-0.2971,-0.2985,-0.2997,-0.2978,-0.2928,-0.2935,-0.2863,-0.2863,-0.2863,0,0,-0.2894,-0.2912,-0.2918,-0.296,-0.2962,-0.3009,-0.2963,-0.2995,-0.3028,-0.2951,-0.2978,-0.2958,-0.2933,-0.2972,-0.2983,-0.2951,-0.2971,-0.3003,-0.3014,-0.2987,-0.2934,-0.2941,-0.2947,-0.2866,-0.2865,-0.2865,0,0,-0.2935,-0.2936,-0.2973,-0.301,-0.3041,-0.3046,-0.3062,-0.3076,-0.3078,-0.3108,-0.3062,-0.3073,-0.3072,-0.3073,-0.307,-0.3153,-0.3047,-0.3157,-0.3212,-0.3166,-0.3171,-0.3174,-0.3057,-0.3049,-0.3165,-0.3165,-0.3165,0,-0.2932,-0.2973,-0.2994,-0.3054,-0.307,-0.307,-0.3111,-0.3141,-0.3154,-0.314,-0.3138,-0.3121,-0.3124,-0.3147,-0.3192,-0.3187,-0.3103,-0.3155,-0.3182,-0.3184,-0.3185,-0.3064,-0.3053,-0.3172,-0.3171,-0.3171,-0.317,0,-0.3003,-0.3038,-0.307,-0.3131,-0.3171,-0.3206,-0.3249,-0.3272,-0.3262,-0.3262,-0.3276,-0.3276,-0.3249,-0.3286,-0.3271,-0.329,-0.3207,-0.3206,-0.3137,-0.32,-0.3069,-0.3055,-0.3183,-0.318,-0.3178,-0.3176,0,0,-0.2938,-0.3086,-0.3084,-0.3095,-0.3198,-0.3208,-0.3298,-0.3327,-0.33,-0.3365,-0.3326,-0.3412,-0.337,-0.3363,-0.335,-0.3341,-0.3304,-0.3283,-0.3277,-0.3159,-0.313,-0.3073,-0.305,-0.3299,-0.3298,-0.3298,-0.3027,0,-0.2951,-0.3044,-0.3136,-0.3184,-0.3201,-0.3264,-0.3316,-0.3352,-0.3359,-0.3334,-0.3369,-0.3333,-0.3415,-0.3363,-0.3396,-0.3305,-0.3275,-0.3372,-0.3091,-0.3081,-0.3018,-0.3037,-0.2916,-0.2665,-0.3012,-0.301,-0.3008,0,-0.2933,-0.2993,-0.3057,-0.3122,-0.3134,-0.3181,-0.3172,-0.3225,-0.3252,-0.3251,-0.3276,-0.3264,-0.3284,-0.3315,-0.3254,-0.3301,-0.3229,-0.3175,-0.3163,-0.3047,-0.3,-0.2663,-0.2625,-0.2622,-0.2985,-0.2987,-0.2988,0,-0.2753,-0.2894,-0.2919,-0.2955,-0.3072,-0.3083,-0.3119,-0.3161,-0.3155,-0.3154,-0.3114,-0.316,-0.3108,-0.3102,-0.3085,-0.3128,-0.296,-0.2993,-0.2867,-0.2857,-0.2665,-0.2643,-0.2583,-0.2918,-0.2918,-0.2919,-0.292,0,-0.2666,-0.2667,-0.2825,-0.2824,-0.2803,-0.2928,-0.2885,-0.2931,-0.2958,-0.2926,-0.3027,-0.2988,-0.305,-0.3,-0.3004,-0.2892,-0.2899,-0.2849,-0.2795,-0.271,-0.2696,-0.2612,-0.2643,-0.2909,-0.2911,-0.2913,-0.2915,0,-0.2452,-0.2571,-0.2582,-0.2699,-0.2715,-0.2679,-0.2746,-0.2714,-0.2769,-0.2723,-0.2713,-0.2792,-0.2746,-0.2784,-0.2705,-0.273,-0.259,-0.26,-0.2473,-0.2413,-0.2326,-0.2367,-0.2179,-0.2125,-0.2388,-0.2386,-0.2383,0,-0.2361,-0.235,-0.2441,-0.2432,-0.2483,-0.2476,-0.247,-0.2573,-0.2572,-0.2611,-0.2575,-0.2537,-0.2523,-0.2411,-0.2415,-0.2341,-0.241,-0.219,-0.2299,-0.2287,-0.2292,-0.233,-0.2304,-0.2063,-0.2058,-0.2054,-0.2051,0,-0.2168,-0.2202,-0.222,-0.2207,-0.2202,-0.2212,-0.2235,-0.2213,-0.2332,-0.2319,-0.2313,-0.229,-0.2234,-0.2153,-0.2093,-0.2059,-0.2142,-0.2106,-0.2123,-0.2058,-0.2057,-0.199,-0.2241,-0.2016,-0.2019,-0.2022,-0.2024,-0.2025,-0.2,-0.1966,-0.1991,-0.1964,-0.1965,-0.195,-0.1895,-0.1966,-0.1943,-0.194,-0.2033,-0.1978,-0.1981,-0.1894,-0.1865,-0.1771,-0.1854,-0.175,-0.1793,-0.1828,-0.1824,-0.1987,-0.1718,-0.1719,-0.1721,-0.1722,-0.1723,0,-0.1795,-0.1785,-0.1752,-0.1724,-0.1665,-0.1741,-0.1737,-0.1684,-0.1631,-0.169,-0.1681,-0.1671,-0.159,-0.162,-0.1554,-0.1495,-0.1486,-0.1476,-0.1506,-0.1492,-0.1623,-0.1663,-0.1335,-0.1335,-0.1335,-0.1335,-0.1335,-0.1335,-0.1679,-0.1591,-0.1592,-0.1443,-0.1425,-0.1314,-0.1286,-0.1249,-0.1266,-0.1226,-0.1251,-0.1316,-0.1372,-0.1497,-0.143,-0.1365,-0.1376,-0.1299,-0.1373,-0.1497,-0.1527,-0.1556,-0.1604,-0.1269,-0.1269,-0.1175,-0.1174,-0.1174]},{"header":{"parameterUnit":"m.s-1","parameterCategory":2,"la1":30.2991,"la2":30.254,"lo1":-89.0895,"lo2":-89.0444,"dy":0.0017,"dx":0.0017,"nx":28,"ny":28,"refTime":"2023-10-28T21:00:00:Z","depth":"0","parameterNumber":3,"parameterNumberName":"V-component_of_CURRENTS"},"data":[0,0,0,0,0,0,0,0,0,0,0,0,0,0,0,0,0,0,0,0,0,0,0,0,0,0,0,0,0,0,0,0,0,0,0,0,0,0,0,0,0,0,0,0,0,0,0,0,0,0,0,0,0,0,0,0,0,0,-0.0125,-0.0123,0,-0.0016,-0.0015,-0.0013,0.0039,0.0039,0.0039,0.0039,0.0195,0.0199,0.0203,0,0,0,0,0,0,0,0,0,0,0,0,0,-0.0206,-0.0205,-0.0125,-0.0123,-0.0122,-0.0016,-0.0015,-0.0013,0.0039,0.0039,0.0039,0.0039,0.0193,0.0198,0.0203,0,0,0,0,0,0,0,0,0,0,0,0,0,-0.0141,-0.0205,-0.0125,-0.0083,-0.0079,-0.0017,-0.0015,-0.0013,0.0039,0.0039,0.0039,0.0039,0.0192,0.0198,0.0204,0.0245,0,0,0.0223,0.0226,0,0,0,0,0,0,0,0,-0.0145,-0.0138,-0.0091,-0.0086,-0.0081,-0.0002,0.0014,0.0076,0.0039,-0.0005,0.0039,0.0039,0.0133,0.0144,0.0165,0.0252,0.0259,0.0224,0.0228,0.023,0.0232,0,0,0,0,0,0,0,-0.015,-0.0142,-0.0081,-0.0089,-0.0083,-0.0043,-0.0034,0.0026,0.0064,-0.0002,0.0002,0.0014,0.0136,0.0158,0.0169,0.0261,0.0224,0.0229,0.0233,0.0236,0.0389,0.039,0,0,0,0,0,0,-0.0168,-0.0147,-0.0085,-0.0078,-0.0114,-0.0041,-0.0032,-0.0027,0.0063,0.0076,0.0014,0.0016,0.0148,0.0161,0.0174,0.0232,0.023,0.0236,0.024,0.0389,0.0389,0.039,0,0,0,0,0,0,-0.017,-0.0164,-0.0089,-0.011,-0.0097,-0.0041,-0.0035,-0.0025,-0.0003,0.0074,0.0088,0.0025,0.0148,0.0166,0.0226,0.0238,0.0239,0.0245,0.0389,0.0389,0.039,0.0344,0,0,0,0,0,0,-0.0173,-0.0165,-0.0167,-0.0111,-0.0097,-0.0056,-0.0035,-0.0023,0.0004,0.0008,0.0088,0.0103,0.0149,0.0216,0.0232,0.0247,0.025,0.0388,0.0389,0.0389,0.0345,0.0343,0.0341,0,0,0,0,0,-0.0176,-0.0181,-0.0168,-0.016,-0.0102,-0.0056,-0.0045,-0.0004,0.0004,0.0015,0.0067,0.01,0.0231,0.0222,0.0241,0.0257,0.0388,0.0389,0.0389,0.0346,0.0343,0.0341,0,0,0,0,0,0,-0.0216,-0.0174,-0.0159,-0.0151,-0.0109,-0.0048,-0.0037,-0.0008,0.0041,0.0042,0.0111,0.0129,0.0184,0.0226,0.0214,0.0301,0.0313,0.0317,0.0273,0.0271,0.0269,0.0244,0.0255,0,0,0,0,0,-0.0227,-0.0223,-0.017,-0.0164,-0.0148,-0.0094,-0.0071,-0.0043,0.0008,0.0029,0.0086,0.0145,0.0202,0.0239,0.0292,0.0347,0.0374,0.0367,0.0365,0.0363,0.0355,0.0398,0.0399,0.0392,0.0392,0.0392,0,0,-0.0241,-0.0218,-0.0215,-0.0172,-0.014,-0.012,-0.008,-0.0052,-0.003,0.004,0.0084,0.014,0.0213,0.0269,0.0298,0.0307,0.038,0.0364,0.0362,0.0355,0.0399,0.04,0.04,0.0392,0.0392,0.0392,0,0,-0.0275,-0.0248,-0.0259,-0.0226,-0.0183,-0.0143,-0.0138,-0.0077,-0.0046,0.0007,0.0058,0.012,0.0207,0.0264,0.0304,0.0324,0.0363,0.0339,0.0319,0.0361,0.0361,0.0362,0.0398,0.0403,0.0344,0.0343,0.0343,0,-0.0296,-0.0301,-0.0252,-0.0249,-0.0229,-0.0159,-0.0159,-0.011,-0.0036,-0.001,0.0012,0.014,0.0206,0.0279,0.0286,0.0321,0.0341,0.0322,0.0357,0.0358,0.036,0.0397,0.0402,0.0341,0.0342,0.0342,0.0342,0,-0.0337,-0.0334,-0.0336,-0.0311,-0.0276,-0.0264,-0.0193,-0.0156,-0.0109,-0.0057,0.0018,0.0112,0.0184,0.0222,0.0266,0.0315,0.0325,0.0343,0.0358,0.0357,0.0397,0.0403,0.0338,0.0339,0.034,0.034,0,0,-0.04,-0.0375,-0.0375,-0.0376,-0.0311,-0.029,-0.0246,-0.0188,-0.0165,-0.0077,-0.0039,0.0077,0.0124,0.0171,0.024,0.0291,0.0333,0.0316,0.0319,0.0343,0.0415,0.0467,0.048,0.035,0.0351,0.0351,0.0438,0,-0.045,-0.0478,-0.0436,-0.0439,-0.0444,-0.0362,-0.0325,-0.0257,-0.0189,-0.013,-0.0021,0.0043,0.0107,0.0144,0.0204,0.0304,0.0347,0.0307,0.042,0.0424,0.0463,0.0488,0.0511,0.0594,0.0445,0.0446,0.0447,0,-0.0501,-0.0514,-0.0543,-0.0511,-0.0503,-0.0486,-0.042,-0.0375,-0.0267,-0.0214,-0.0129,-0.0045,0.0063,0.0105,0.0264,0.0231,0.0309,0.0384,0.0389,0.0456,0.0488,0.0572,0.0611,0.0735,0.0457,0.0456,0.0455,0,-0.0578,-0.0579,-0.0612,-0.0601,-0.0553,-0.0544,-0.0507,-0.0411,-0.0366,-0.0271,-0.023,-0.0101,-0.0022,0.0089,0.0262,0.0253,0.0429,0.0437,0.0555,0.0559,0.0611,0.0619,0.0777,0.0523,0.0522,0.0522,0.0522,0,-0.0642,-0.0661,-0.0657,-0.0672,-0.0685,-0.0623,-0.0607,-0.0546,-0.0458,-0.04,-0.0285,-0.0204,-0.0025,0.0111,0.0239,0.0432,0.0413,0.0556,0.059,0.0597,0.0602,0.0739,0.0771,0.0525,0.0525,0.0524,0.0524,0,-0.0701,-0.0707,-0.0737,-0.0728,-0.0722,-0.0727,-0.067,-0.0648,-0.0564,-0.0486,-0.0456,-0.0276,-0.0088,0.0096,0.0303,0.0416,0.0663,0.0646,0.0644,0.0677,0.0894,0.0921,0.1082,0.1163,0.0782,0.0784,0.0785,0,-0.0733,-0.0763,-0.0785,-0.0799,-0.0795,-0.0794,-0.078,-0.0707,-0.0666,-0.0511,-0.0468,-0.028,-0.0106,0.0218,0.0446,0.0677,0.0755,0.0813,0.0807,0.0921,0.0976,0.0985,0.1041,0.0857,0.0859,0.086,0.0862,0,-0.078,-0.0791,-0.0815,-0.085,-0.0862,-0.0865,-0.0838,-0.0819,-0.0709,-0.0624,-0.0453,-0.0307,0.0022,0.033,0.0619,0.0748,0.09,0.0854,0.0978,0.1056,0.107,0.1159,0.0778,0.0877,0.0875,0.0874,0.0873,0.0873,-0.08,-0.083,-0.0859,-0.0882,-0.0903,-0.0904,-0.0887,-0.0834,-0.0753,-0.058,-0.0441,-0.0183,0.0229,0.0665,0.0814,0.1104,0.1055,0.1177,0.1202,0.1203,0.1282,0.0934,0.1068,0.1068,0.1068,0.1067,0.1067,0,-0.0807,-0.0839,-0.0875,-0.0906,-0.0923,-0.0923,-0.089,-0.084,-0.0729,-0.0554,-0.0357,0.0137,0.0533,0.0879,0.129,0.1443,0.1468,0.1504,0.1522,0.1566,0.1273,0.1279,0.1459,0.1459,0.1459,0.1459,0.1459,0.1459,-0.0811,-0.0845,-0.0864,-0.0894,-0.0915,-0.0901,-0.0875,-0.0787,-0.065,-0.0346,-0.0057,0.0198,0.07,0.1352,0.1719,0.1741,0.187,0.1838,0.1926,0.1717,0.1688,0.1661,0.1678,0.1939,0.1939,0.2214,0.2216,0.2218]}],[{"header":{"parameterUnit":"m.s-1","parameterCategory":2,"la1":30.2991,"la2":30.254,"lo1":-89.0895,"lo2":-89.0444,"dy":0.0017,"dx":0.0017,"nx":28,"ny":28,"refTime":"2023-10-28T21:00:00:Z","depth":"2","parameterNumber":2,"parameterNumberName":"U-component_of_CURRENTS"},"data":[0,0,0,0,0,0,0,0,0,0,0,0,0,0,0,0,0,0,0,0,0,0,0,0,0,0,0,0,0,0,0,0,0,0,0,0,0,0,0,0,0,0,0,0,0,0,0,0,0,0,0,0,0,0,0,0,0,0,-0.2342,-0.2342,0,-0.233,-0.2329,-0.2329,-0.2305,-0.2305,-0.2305,-0.2305,-0.2259,-0.2258,-0.2257,0,0,0,0,0,0,0,0,0,0,0,0,0,-0.2315,-0.2316,-0.2342,-0.2342,-0.2342,-0.233,-0.2329,-0.2329,-0.2305,-0.2305,-0.2305,-0.2305,-0.2259,-0.2258,-0.2256,0,0,0,0,0,0,0,0,0,0,0,0,0,-0.2315,-0.2316,-0.2342,-0.2331,-0.233,-0.233,-0.2329,-0.2329,-0.2305,-0.2305,-0.2305,-0.2304,-0.2259,-0.2258,-0.2256,-0.2254,0,0,-0.2252,-0.2251,0,0,0,0,0,0,0,0,-0.2315,-0.2316,-0.2332,-0.2331,-0.233,-0.2321,-0.2303,-0.2303,-0.2306,-0.2312,-0.2305,-0.2304,-0.2278,-0.2275,-0.227,-0.2251,-0.2249,-0.2251,-0.2251,-0.225,-0.2249,0,0,0,0,0,0,0,-0.2315,-0.2316,-0.2334,-0.2332,-0.2331,-0.2316,-0.2316,-0.2303,-0.2294,-0.2311,-0.231,-0.2313,-0.2277,-0.2272,-0.2269,-0.2249,-0.2252,-0.225,-0.2249,-0.2249,-0.2243,-0.2243,0,0,0,0,0,0,-0.2324,-0.2316,-0.2335,-0.2334,-0.2325,-0.2318,-0.2317,-0.2322,-0.2295,-0.2292,-0.2313,-0.2312,-0.2275,-0.2271,-0.2267,-0.2331,-0.225,-0.2248,-0.2248,-0.2242,-0.2243,-0.2244,0,0,0,0,0,0,-0.2323,-0.2326,-0.2335,-0.2327,-0.2327,-0.2319,-0.2325,-0.2322,-0.2321,-0.2298,-0.2293,-0.2315,-0.2274,-0.2269,-0.2251,-0.2326,-0.2248,-0.2246,-0.2241,-0.2242,-0.2243,-0.2414,0,0,0,0,0,0,-0.2323,-0.2326,-0.2322,-0.2328,-0.2328,-0.2349,-0.2325,-0.2322,-0.2324,-0.2322,-0.2298,-0.2293,-0.2274,-0.2253,-0.2249,-0.2323,-0.2245,-0.224,-0.2242,-0.2243,-0.2408,-0.2421,-0.2433,0,0,0,0,0,-0.2322,-0.2331,-0.2322,-0.2324,-0.2327,-0.235,-0.2349,-0.234,-0.2325,-0.2334,-0.2303,-0.2294,-0.226,-0.2252,-0.2247,-0.2323,-0.2239,-0.2241,-0.2243,-0.2402,-0.2419,-0.2432,0,0,0,0,0,0,-0.2319,-0.233,-0.232,-0.2331,-0.2343,-0.2348,-0.2354,-0.2345,-0.2329,-0.2319,-0.2292,-0.2285,-0.2311,-0.2268,-0.2259,-0.2318,-0.2254,-0.2254,-0.2376,-0.2391,-0.2404,-0.2383,-0.2244,0,0,0,0,0,-0.2316,-0.2328,-0.2336,-0.2347,-0.2355,-0.2353,-0.2356,-0.2351,-0.2343,-0.2336,-0.2327,-0.2307,-0.2314,-0.231,-0.2303,-0.2319,-0.2249,-0.2362,-0.2375,-0.2386,-0.2361,-0.2335,-0.2344,-0.2249,-0.2249,-0.2249,0,0,-0.2318,-0.2327,-0.2331,-0.2347,-0.2354,-0.2386,-0.2354,-0.2369,-0.2396,-0.2332,-0.2363,-0.2354,-0.2325,-0.2361,-0.2369,-0.2335,-0.2373,-0.2388,-0.2399,-0.2367,-0.2338,-0.2347,-0.2355,-0.2251,-0.225,-0.225,0,0,-0.2341,-0.2339,-0.2357,-0.2377,-0.2393,-0.2403,-0.2412,-0.2425,-0.2429,-0.2452,-0.2426,-0.2438,-0.2445,-0.2445,-0.2444,-0.2506,-0.2446,-0.2523,-0.2572,-0.255,-0.2557,-0.2563,-0.2482,-0.2479,-0.2525,-0.2526,-0.2526,0,-0.2332,-0.2357,-0.2367,-0.24,-0.2412,-0.242,-0.2444,-0.247,-0.2477,-0.2477,-0.248,-0.2496,-0.2489,-0.252,-0.2555,-0.2543,-0.2488,-0.2533,-0.2569,-0.2573,-0.2577,-0.2491,-0.2486,-0.2534,-0.2533,-0.2532,-0.2531,0,-0.237,-0.2393,-0.2414,-0.2458,-0.2482,-0.2503,-0.2541,-0.2565,-0.258,-0.2597,-0.2631,-0.2623,-0.2618,-0.2655,-0.2631,-0.2666,-0.2605,-0.26,-0.2541,-0.2597,-0.2502,-0.2494,-0.2546,-0.2543,-0.2541,-0.2539,0,0,-0.2319,-0.2413,-0.2416,-0.2432,-0.2499,-0.2513,-0.2584,-0.2619,-0.2631,-0.269,-0.2693,-0.2765,-0.275,-0.2741,-0.273,-0.2725,-0.2725,-0.2678,-0.2673,-0.2611,-0.2628,-0.2564,-0.2547,-0.2738,-0.2738,-0.2738,-0.2551,0,-0.2324,-0.2383,-0.2436,-0.2489,-0.251,-0.2556,-0.2612,-0.2655,-0.2686,-0.2702,-0.2732,-0.2738,-0.279,-0.277,-0.2797,-0.2725,-0.271,-0.2772,-0.2566,-0.2557,-0.2508,-0.2539,-0.2368,-0.2187,-0.2542,-0.254,-0.2539,0,-0.2315,-0.2355,-0.2401,-0.2467,-0.2479,-0.2523,-0.256,-0.2611,-0.2666,-0.2683,-0.2727,-0.273,-0.2745,-0.2761,-0.2721,-0.2758,-0.2703,-0.2659,-0.2651,-0.2517,-0.2479,-0.2185,-0.2157,-0.2524,-0.2525,-0.2526,-0.2527,0,-0.2222,-0.2314,-0.2337,-0.2365,-0.2461,-0.2477,-0.2522,-0.259,-0.26,-0.264,-0.2629,-0.2683,-0.2649,-0.2648,-0.2616,-0.265,-0.2529,-0.2554,-0.2439,-0.2431,-0.2202,-0.2175,-0.2504,-0.2505,-0.2505,-0.2505,-0.2506,0,-0.2175,-0.2188,-0.2294,-0.2302,-0.2311,-0.2407,-0.241,-0.2464,-0.2509,-0.2507,-0.2594,-0.257,-0.262,-0.258,-0.2571,-0.2475,-0.2498,-0.2426,-0.2387,-0.2255,-0.2236,-0.2462,-0.246,-0.2498,-0.25,-0.2501,-0.2503,0,-0.2055,-0.2135,-0.2153,-0.2246,-0.2264,-0.2262,-0.232,-0.2321,-0.2393,-0.2377,-0.2376,-0.2439,-0.2402,-0.2428,-0.2366,-0.237,-0.2301,-0.2256,-0.2075,-0.2022,-0.2218,-0.2226,-0.209,-0.2086,-0.2083,-0.208,-0.2078,0,-0.1994,-0.1997,-0.2071,-0.2068,-0.2101,-0.2122,-0.2128,-0.2228,-0.2238,-0.2292,-0.2264,-0.2243,-0.2216,-0.2124,-0.2105,-0.2039,-0.2161,-0.185,-0.1911,-0.2203,-0.2179,-0.2193,-0.2205,-0.165,-0.1644,-0.164,-0.1636,0,-0.1854,-0.1886,-0.19,-0.1902,-0.1906,-0.1919,-0.1951,-0.1942,-0.2054,-0.2051,-0.2041,-0.2014,-0.1961,-0.1838,-0.1785,-0.1742,-0.1865,-0.1756,-0.2076,-0.1816,-0.1783,-0.1763,-0.1789,-0.1596,-0.16,-0.1603,-0.1605,-0.1607,-0.1718,-0.1693,-0.1715,-0.1702,-0.1713,-0.1707,-0.1662,-0.1719,-0.1705,-0.1697,-0.1777,-0.1695,-0.1717,-0.1542,-0.1481,-0.1444,-0.1578,-0.1533,-0.1548,-0.1568,-0.1585,-0.1554,-0.1321,-0.1323,-0.1325,-0.1327,-0.1329,0,-0.1538,-0.1533,-0.1512,-0.1495,-0.1451,-0.1525,-0.1526,-0.1473,-0.1414,-0.1449,-0.1425,-0.1282,-0.1204,-0.1241,-0.1115,-0.1113,-0.1118,-0.1081,-0.1092,-0.1131,-0.1165,-0.1166,-0.0788,-0.0786,-0.0785,-0.0784,0,0,-0.1435,-0.136,-0.1362,-0.1239,-0.1232,-0.1135,-0.1109,-0.1068,-0.1068,-0.0993,-0.0967,-0.1071,-0.115,-0.0955,-0.0931,-0.0835,-0.0969,-0.0787,-0.1212,-0.1258,-0.1291,-0.1408,-0.1449,0,0,0,0,0]},{"header":{"parameterUnit":"m.s-1","parameterCategory":2,"la1":30.2991,"la2":30.254,"lo1":-89.0895,"lo2":-89.0444,"dy":0.0017,"dx":0.0017,"nx":28,"ny":28,"refTime":"2023-10-28T21:00:00:Z","depth":"2","parameterNumber":3,"parameterNumberName":"V-component_of_CURRENTS"},"data":[0,0,0,0,0,0,0,0,0,0,0,0,0,0,0,0,0,0,0,0,0,0,0,0,0,0,0,0,0,0,0,0,0,0,0,0,0,0,0,0,0,0,0,0,0,0,0,0,0,0,0,0,0,0,0,0,0,0,-0.0208,-0.0207,0,-0.0131,-0.013,-0.0129,-0.0097,-0.0098,-0.0098,-0.0098,0.0008,0.0011,0.0014,0,0,0,0,0,0,0,0,0,0,0,0,0,-0.0261,-0.026,-0.0208,-0.0207,-0.0206,-0.0131,-0.013,-0.0129,-0.0097,-0.0098,-0.0098,-0.0098,0.0008,0.0011,0.0015,0,0,0,0,0,0,0,0,0,0,0,0,0,-0.0217,-0.026,-0.0208,-0.0181,-0.0178,-0.0131,-0.013,-0.0129,-0.0097,-0.0098,-0.0098,-0.0098,0.0006,0.0011,0.0015,0.0046,0,0,0.0028,0.003,0,0,0,0,0,0,0,0,-0.0219,-0.0215,-0.0186,-0.0183,-0.0179,-0.0124,-0.011,-0.0069,-0.0097,-0.0128,-0.0098,-0.0098,-0.0033,-0.0025,-0.0011,0.0051,0.0055,0.0029,0.0032,0.0033,0.0035,0,0,0,0,0,0,0,-0.0223,-0.0218,-0.0178,-0.0185,-0.0181,-0.0149,-0.0144,-0.0102,-0.008,-0.0126,-0.0123,-0.0114,-0.0031,-0.0015,-0.0008,0.0057,0.0029,0.0033,0.0035,0.0037,0.0141,0.0141,0,0,0,0,0,0,-0.0235,-0.0221,-0.0181,-0.0176,-0.02,-0.0149,-0.0143,-0.0142,-0.0081,-0.0072,-0.0114,-0.0113,-0.0023,-0.0013,-0.0004,0.0038,0.0033,0.0038,0.004,0.0141,0.0141,0.0141,0,0,0,0,0,0,-0.0236,-0.0232,-0.0184,-0.0196,-0.0187,-0.0148,-0.0147,-0.014,-0.0126,-0.0072,-0.0063,-0.0107,-0.0023,-0.0011,0.0026,0.0042,0.004,0.0044,0.0141,0.0141,0.0141,0.0121,0,0,0,0,0,0,-0.0238,-0.0233,-0.0237,-0.0197,-0.0187,-0.0165,-0.0146,-0.0138,-0.012,-0.0117,-0.0063,-0.0053,-0.0022,0.0019,0.003,0.0048,0.0047,0.014,0.0141,0.0141,0.0122,0.012,0.012,0,0,0,0,0,-0.024,-0.0246,-0.0238,-0.0233,-0.0194,-0.0165,-0.0157,-0.0129,-0.0119,-0.0117,-0.0081,-0.0055,0.0028,0.0023,0.0036,0.0055,0.014,0.0141,0.0141,0.0122,0.0121,0.012,0,0,0,0,0,0,-0.0269,-0.0242,-0.0232,-0.023,-0.0203,-0.016,-0.0154,-0.0132,-0.0101,-0.01,-0.0051,-0.0039,-0.0001,0.0026,0.0018,0.0083,0.0088,0.0091,0.0069,0.0069,0.0068,0.005,0.0051,0,0,0,0,0,-0.0278,-0.0278,-0.0243,-0.0241,-0.0232,-0.0193,-0.0178,-0.0159,-0.0125,-0.0112,-0.0071,-0.003,0.0011,0.0036,0.0072,0.0112,0.0138,0.0131,0.013,0.0129,0.0122,0.0175,0.0178,0.0142,0.0142,0.0142,0,0,-0.0287,-0.0273,-0.0272,-0.0248,-0.0226,-0.0217,-0.0185,-0.0168,-0.0153,-0.0104,-0.0074,-0.0032,0.0019,0.0059,0.0079,0.0084,0.0153,0.0129,0.0128,0.0122,0.0176,0.0179,0.0182,0.0142,0.0142,0.0142,0,0,-0.0315,-0.0297,-0.031,-0.0291,-0.0264,-0.0236,-0.0233,-0.0192,-0.0169,-0.0134,-0.0094,-0.0045,0.0013,0.006,0.0089,0.0105,0.0142,0.0115,0.0105,0.0157,0.016,0.0164,0.02,0.0207,0.012,0.0119,0.0119,0,-0.0329,-0.034,-0.0308,-0.0313,-0.0299,-0.0249,-0.0254,-0.022,-0.0169,-0.0145,-0.0134,-0.003,0.0016,0.008,0.0083,0.0106,0.0129,0.0108,0.0156,0.016,0.0164,0.0201,0.0208,0.0119,0.0119,0.0119,0.0119,0,-0.0367,-0.0371,-0.0375,-0.0366,-0.0344,-0.0338,-0.0289,-0.0262,-0.0224,-0.0183,-0.0118,-0.0049,0.0012,0.0042,0.0069,0.0125,0.013,0.0146,0.0159,0.0166,0.0204,0.0213,0.0117,0.0118,0.0118,0.0118,0,0,-0.041,-0.0406,-0.0407,-0.0413,-0.0372,-0.0359,-0.0328,-0.0283,-0.026,-0.0194,-0.0153,-0.0064,-0.0021,0.0014,0.007,0.0122,0.0176,0.0139,0.0142,0.0173,0.0277,0.0302,0.0314,0.0198,0.02,0.0201,0.0292,0,-0.0452,-0.0486,-0.0459,-0.047,-0.048,-0.0417,-0.0389,-0.0336,-0.0281,-0.0227,-0.0133,-0.0078,-0.0032,0.0002,0.0062,0.0149,0.0197,0.0149,0.0265,0.0268,0.029,0.0325,0.0286,0.0365,0.03,0.0302,0.0303,0,-0.0499,-0.0514,-0.0546,-0.0526,-0.0521,-0.0513,-0.0456,-0.0422,-0.0328,-0.0282,-0.0203,-0.0133,-0.0033,-0.0004,0.0148,0.0112,0.0184,0.025,0.0255,0.029,0.031,0.0348,0.0384,0.0317,0.0316,0.0315,0.0314,0,-0.0559,-0.0569,-0.0599,-0.0594,-0.0562,-0.0554,-0.0526,-0.0445,-0.0409,-0.0319,-0.028,-0.0159,-0.009,0.0019,0.0162,0.0152,0.0321,0.0328,0.0419,0.0421,0.0416,0.0416,0.0422,0.0422,0.0422,0.0421,0.0421,0,-0.0612,-0.0632,-0.0635,-0.0651,-0.0663,-0.0616,-0.0602,-0.0551,-0.0472,-0.0423,-0.0318,-0.0247,-0.0082,0.0041,0.0153,0.032,0.0319,0.0423,0.0453,0.0408,0.0406,0.0383,0.0377,0.0425,0.0424,0.0423,0.0423,0,-0.0667,-0.0673,-0.0706,-0.07,-0.0697,-0.0705,-0.0659,-0.0639,-0.0561,-0.0495,-0.0467,-0.0304,-0.0138,0.0027,0.0219,0.0316,0.0465,0.0517,0.0448,0.0468,0.0527,0.0519,0.0627,0.0629,0.063,0.0631,0.0632,0,-0.07,-0.0729,-0.0752,-0.0768,-0.077,-0.0771,-0.0761,-0.0694,-0.0659,-0.0519,-0.0483,-0.0314,-0.017,0.0121,0.0317,0.0522,0.0516,0.059,0.0573,0.0533,0.0552,0.0541,0.0531,0.0556,0.0557,0.0557,0.0557,0,-0.0751,-0.0762,-0.0787,-0.0824,-0.0839,-0.0845,-0.0824,-0.0806,-0.0706,-0.0632,-0.0487,-0.0365,-0.008,0.0159,0.0414,0.052,0.0555,0.0603,0.0599,0.0509,0.0474,0.0489,0.0481,0.056,0.056,0.0559,0.0559,0.0559,-0.078,-0.0812,-0.0841,-0.0868,-0.0891,-0.0895,-0.0884,-0.0836,-0.0768,-0.0619,-0.05,-0.0288,-0.007,0.0312,0.0479,0.0622,0.0625,0.0649,0.0645,0.0641,0.0615,0.0586,0.0686,0.0687,0.0687,0.0687,0.0688,0,-0.0801,-0.0832,-0.0871,-0.0907,-0.0929,-0.0925,-0.0898,-0.0856,-0.0766,-0.0614,-0.0453,-0.0194,0.0078,0.0294,0.0535,0.0679,0.0649,0.068,0.0614,0.061,0.0607,0.0577,0.0639,0.064,0.064,0.064,0,0,-0.0814,-0.0852,-0.0871,-0.0914,-0.0938,-0.0935,-0.0913,-0.0838,-0.0718,-0.0563,-0.0398,-0.0163,0.0104,0.0267,0.0434,0.0547,0.0534,0.0543,0.0565,0.0462,0.0457,0.0573,0.0521,0,0,0,0,0]}],[{"header":{"parameterUnit":"m.s-1","parameterCategory":2,"la1":30.2991,"la2":30.254,"lo1":-89.0895,"lo2":-89.0444,"dy":0.0017,"dx":0.0017,"nx":28,"ny":28,"refTime":"2023-10-28T21:00:00:Z","depth":"4","parameterNumber":2,"parameterNumberName":"U-component_of_CURRENTS"},"data":[0,0,0,0,0,0,0,0,0,0,0,0,0,0,0,0,0,0,0,0,0,0,0,0,0,0,0,0,0,0,0,0,0,0,0,0,0,0,0,0,0,0,0,0,0,0,0,0,0,0,0,0,0,0,0,0,0,0,-0.1274,-0.1274,0,-0.1252,-0.1252,-0.1251,-0.1248,-0.1249,-0.1249,-0.125,-0.1259,-0.1259,-0.1258,0,0,0,0,0,0,0,0,0,0,0,0,0,-0.1248,-0.1249,-0.1274,-0.1274,-0.1274,-0.1252,-0.1252,-0.1251,-0.1248,-0.1249,-0.1249,-0.125,-0.1259,-0.1259,-0.1258,0,0,0,0,0,0,0,0,0,0,0,0,0,-0.1242,-0.1249,-0.1274,-0.1274,-0.1274,-0.1253,-0.1252,-0.1251,-0.1248,-0.1249,-0.125,-0.125,-0.1259,-0.1259,-0.1258,-0.1236,0,0,-0.1257,-0.1256,0,0,0,0,0,0,0,0,-0.1242,-0.1242,-0.1273,-0.1274,-0.1274,-0.1258,-0.1246,-0.1249,-0.1247,-0.1252,-0.125,-0.1251,-0.1264,-0.1263,-0.125,-0.1236,-0.1236,-0.1257,-0.1256,-0.1256,-0.1256,0,0,0,0,0,0,0,-0.1243,-0.1243,-0.126,-0.1274,-0.1274,-0.1253,-0.1253,-0.1246,-0.125,-0.1252,-0.1253,-0.1258,-0.1264,-0.125,-0.125,-0.1237,-0.1257,-0.1256,-0.1256,-0.1256,-0.1303,-0.1305,0,0,0,0,0,0,-0.1258,-0.1243,-0.1261,-0.126,-0.1266,-0.1253,-0.1253,-0.1258,-0.1249,-0.125,-0.1257,-0.1258,-0.125,-0.1251,-0.125,-0.1324,-0.1256,-0.1256,-0.1255,-0.1302,-0.1304,-0.1305,0,0,0,0,0,0,-0.1257,-0.1259,-0.1262,-0.1255,-0.1255,-0.1254,-0.1258,-0.1257,-0.1269,-0.1254,-0.1254,-0.1274,-0.1251,-0.1251,-0.128,-0.1321,-0.1255,-0.1255,-0.13,-0.1302,-0.1305,-0.1407,0,0,0,0,0,0,-0.1256,-0.1259,-0.1275,-0.1256,-0.1256,-0.1276,-0.1258,-0.1256,-0.1271,-0.1273,-0.1268,-0.1268,-0.1252,-0.1281,-0.128,-0.1319,-0.1254,-0.1298,-0.1301,-0.1304,-0.1402,-0.1413,-0.1422,0,0,0,0,0,-0.1255,-0.1278,-0.1275,-0.1278,-0.1275,-0.1278,-0.1276,-0.1274,-0.1272,-0.1285,-0.129,-0.1269,-0.1299,-0.1282,-0.128,-0.132,-0.1296,-0.13,-0.1304,-0.1397,-0.1411,-0.1422,0,0,0,0,0,0,-0.1283,-0.1279,-0.1276,-0.1299,-0.13,-0.128,-0.1294,-0.1288,-0.1297,-0.1304,-0.1287,-0.1288,-0.1328,-0.1308,-0.129,-0.1342,-0.1295,-0.1298,-0.1367,-0.138,-0.139,-0.1388,-0.1254,0,0,0,0,0,-0.1294,-0.1305,-0.13,-0.132,-0.1324,-0.1311,-0.1314,-0.1312,-0.1314,-0.1318,-0.1322,-0.1325,-0.1333,-0.1346,-0.1345,-0.1373,-0.1352,-0.1397,-0.1407,-0.1416,-0.1414,-0.1418,-0.1428,-0.1317,-0.1317,-0.1317,0,0,-0.1311,-0.1311,-0.132,-0.1326,-0.1324,-0.1339,-0.1315,-0.133,-0.1352,-0.1318,-0.1362,-0.136,-0.1348,-0.1384,-0.14,-0.1379,-0.1443,-0.1421,-0.1429,-0.1421,-0.1422,-0.1433,-0.1443,-0.132,-0.1319,-0.1319,0,0,-0.1343,-0.1351,-0.1367,-0.1377,-0.1384,-0.1374,-0.1387,-0.1387,-0.14,-0.1432,-0.1419,-0.1443,-0.1458,-0.1459,-0.1459,-0.1522,-0.1493,-0.1531,-0.1587,-0.1592,-0.1601,-0.1609,-0.162,-0.1627,-0.154,-0.1541,-0.1541,0,-0.1365,-0.1383,-0.1375,-0.1397,-0.1413,-0.1398,-0.1423,-0.1431,-0.1447,-0.1467,-0.1466,-0.1499,-0.149,-0.1527,-0.1554,-0.1545,-0.1546,-0.1544,-0.1606,-0.1612,-0.1618,-0.1627,-0.1635,-0.1546,-0.1545,-0.1545,-0.1544,0,-0.14,-0.1427,-0.1443,-0.1461,-0.1476,-0.1499,-0.1508,-0.1534,-0.1549,-0.1558,-0.1609,-0.1602,-0.1619,-0.163,-0.1612,-0.1659,-0.1647,-0.1616,-0.1575,-0.1636,-0.1642,-0.1647,-0.1554,-0.1552,-0.155,-0.1549,0,0,-0.1412,-0.1457,-0.1465,-0.1491,-0.1514,-0.1529,-0.1573,-0.1604,-0.1644,-0.1668,-0.1717,-0.1738,-0.1735,-0.1733,-0.1721,-0.1731,-0.1781,-0.1703,-0.1701,-0.1715,-0.1808,-0.1659,-0.165,-0.1769,-0.177,-0.1771,-0.1804,0,-0.144,-0.1493,-0.1508,-0.1567,-0.1593,-0.161,-0.1656,-0.1688,-0.1715,-0.1762,-0.1765,-0.1804,-0.1775,-0.1794,-0.1802,-0.178,-0.1797,-0.1775,-0.1745,-0.1744,-0.1604,-0.1651,-0.1774,-0.1808,-0.1809,-0.181,-0.181,0,-0.1458,-0.1494,-0.1554,-0.1624,-0.164,-0.1679,-0.1744,-0.1784,-0.1837,-0.1862,-0.1894,-0.1893,-0.1918,-0.1878,-0.1883,-0.1875,-0.1853,-0.1834,-0.1834,-0.1655,-0.1603,-0.1727,-0.1819,-0.1819,-0.1818,-0.1817,-0.1817,0,-0.1445,-0.1525,-0.1575,-0.16,-0.1674,-0.1718,-0.176,-0.182,-0.1845,-0.1924,-0.1939,-0.1981,-0.1976,-0.1975,-0.1916,-0.1919,-0.1901,-0.1895,-0.1745,-0.1736,-0.1816,-0.1807,-0.1899,-0.1899,-0.1899,-0.1899,-0.1898,0,-0.1442,-0.1486,-0.1584,-0.1609,-0.1672,-0.1741,-0.1801,-0.1852,-0.1912,-0.1924,-0.1985,-0.1969,-0.1996,-0.1972,-0.1949,-0.1844,-0.1924,-0.1755,-0.1729,-0.1862,-0.1857,-0.1821,-0.1811,-0.19,-0.19,-0.1899,-0.1899,0,-0.1383,-0.1456,-0.1513,-0.1622,-0.1657,-0.17,-0.1779,-0.1809,-0.1898,-0.1909,-0.1929,-0.196,-0.1932,-0.1932,-0.1913,-0.1843,-0.1792,-0.1733,-0.1881,-0.1862,-0.1631,-0.1627,-0.1605,-0.16,-0.1596,-0.1592,-0.1589,0,-0.1339,-0.1371,-0.149,-0.1513,-0.1557,-0.1631,-0.166,-0.177,-0.1786,-0.186,-0.1838,-0.1851,-0.1849,-0.1706,-0.1737,-0.1703,-0.1664,-0.1655,-0.1644,-0.1622,-0.1599,-0.1602,-0.1603,-0.1582,-0.1581,-0.158,-0.1579,0,-0.1243,-0.1304,-0.1342,-0.1398,-0.1443,-0.1483,-0.1546,-0.1543,-0.165,-0.1745,-0.1689,-0.1664,-0.1617,-0.1594,-0.1561,-0.1533,-0.168,-0.1609,-0.1619,-0.1609,-0.1594,-0.1576,-0.1583,-0.1564,-0.1566,-0.1567,-0.1568,0,-0.1148,-0.1149,-0.1213,-0.1244,-0.1301,-0.1311,-0.1368,-0.1383,-0.1417,-0.1526,-0.1491,-0.1515,-0.1573,-0.1502,-0.1472,-0.1433,-0.1424,-0.1394,-0.1414,-0.1432,-0.1355,-0.131,-0.1168,0,0,0,0,0,-0.1044,-0.1031,-0.105,-0.1079,-0.1136,-0.1172,-0.127,-0.1335,-0.1445,-0.1358,-0.1428,-0.138,-0.1332,-0.1348,-0.1271,-0.1402,-0.1435,-0.131,-0.1414,-0.148,-0.1498,-0.1421,0,0,0,0,0,0,-0.0967,-0.0979,-0.0993,-0.0938,-0.093,-0.0974,-0.1032,-0.1117,-0.1092,-0.1209,-0.1182,-0.1282,-0.125,-0.133,-0.1228,-0.1238,-0.1275,-0.1347,-0.1343,-0.147,-0.1486,-0.15,-0.1427,0,0,0,0,0]},{"header":{"parameterUnit":"m.s-1","parameterCategory":2,"la1":30.2991,"la2":30.254,"lo1":-89.0895,"lo2":-89.0444,"dy":0.0017,"dx":0.0017,"nx":28,"ny":28,"refTime":"2023-10-28T21:00:00:Z","depth":"4","parameterNumber":3,"parameterNumberName":"V-component_of_CURRENTS"},"data":[0,0,0,0,0,0,0,0,0,0,0,0,0,0,0,0,0,0,0,0,0,0,0,0,0,0,0,0,0,0,0,0,0,0,0,0,0,0,0,0,0,0,0,0,0,0,0,0,0,0,0,0,0,0,0,0,0,0,-0.0151,-0.0151,0,-0.0126,-0.0126,-0.0126,-0.0123,-0.0123,-0.0123,-0.0123,-0.0095,-0.0094,-0.0093,0,0,0,0,0,0,0,0,0,0,0,0,0,-0.0164,-0.0164,-0.0151,-0.0151,-0.015,-0.0126,-0.0126,-0.0126,-0.0123,-0.0123,-0.0123,-0.0123,-0.0095,-0.0094,-0.0093,0,0,0,0,0,0,0,0,0,0,0,0,0,-0.0152,-0.0164,-0.0151,-0.0145,-0.0144,-0.0126,-0.0126,-0.0126,-0.0123,-0.0123,-0.0123,-0.0123,-0.0096,-0.0094,-0.0093,-0.0081,0,0,-0.0089,-0.0088,0,0,0,0,0,0,0,0,-0.0153,-0.0152,-0.0147,-0.0146,-0.0145,-0.0127,-0.012,-0.011,-0.0123,-0.0132,-0.0123,-0.0124,-0.0104,-0.0102,-0.0099,-0.0079,-0.0078,-0.0089,-0.0088,-0.0087,-0.0087,0,0,0,0,0,0,0,-0.0154,-0.0153,-0.0143,-0.0146,-0.0145,-0.0132,-0.0131,-0.0118,-0.0118,-0.0131,-0.0131,-0.0126,-0.0104,-0.01,-0.0098,-0.0078,-0.0089,-0.0088,-0.0087,-0.0086,-0.0041,-0.004,0,0,0,0,0,0,-0.0156,-0.0154,-0.0143,-0.0142,-0.0148,-0.0132,-0.0131,-0.0133,-0.0119,-0.0116,-0.0126,-0.0126,-0.0102,-0.01,-0.0097,-0.0087,-0.0088,-0.0086,-0.0085,-0.0041,-0.004,-0.004,0,0,0,0,0,0,-0.0156,-0.0156,-0.0144,-0.0146,-0.0143,-0.0132,-0.0134,-0.0133,-0.0132,-0.0114,-0.0112,-0.0127,-0.0102,-0.0099,-0.0083,-0.0085,-0.0086,-0.0084,-0.0041,-0.0041,-0.004,-0.0062,0,0,0,0,0,0,-0.0157,-0.0156,-0.0159,-0.0146,-0.0143,-0.0141,-0.0134,-0.0132,-0.0128,-0.0128,-0.0114,-0.0112,-0.0102,-0.0085,-0.0082,-0.0083,-0.0083,-0.0042,-0.0041,-0.004,-0.0062,-0.0062,-0.0063,0,0,0,0,0,-0.0158,-0.0163,-0.016,-0.0158,-0.0148,-0.0141,-0.0139,-0.0131,-0.0128,-0.0131,-0.0114,-0.0112,-0.0078,-0.0083,-0.008,-0.0081,-0.0042,-0.0041,-0.004,-0.0062,-0.0062,-0.0062,0,0,0,0,0,0,-0.0172,-0.0163,-0.0159,-0.0162,-0.0154,-0.014,-0.0141,-0.0133,-0.0123,-0.0123,-0.0106,-0.0102,-0.0093,-0.0078,-0.0085,-0.0064,-0.006,-0.0058,-0.0077,-0.0078,-0.0078,-0.0083,-0.0082,0,0,0,0,0,-0.0175,-0.0178,-0.0166,-0.0169,-0.0167,-0.0153,-0.0149,-0.0145,-0.0132,-0.0128,-0.0115,-0.0098,-0.0085,-0.0075,-0.0065,-0.0048,-0.0018,-0.0045,-0.0046,-0.0046,-0.0047,0.0004,0.0008,-0.0037,-0.0037,-0.0037,0,0,-0.0181,-0.0176,-0.0178,-0.0172,-0.0166,-0.0169,-0.0152,-0.0151,-0.015,-0.0126,-0.0121,-0.0105,-0.0083,-0.007,-0.0064,-0.0057,-0.0017,-0.0045,-0.0046,-0.0046,0.0005,0.001,0.0014,-0.0036,-0.0036,-0.0036,0,0,-0.02,-0.0191,-0.0204,-0.0199,-0.0192,-0.0181,-0.0181,-0.0168,-0.0162,-0.0152,-0.0134,-0.0111,-0.0096,-0.0072,-0.006,-0.0052,-0.0027,-0.0053,-0.0052,-0.0003,0.0001,0.0005,0.0052,0.006,-0.0046,-0.0046,-0.0046,0,-0.0208,-0.0222,-0.0205,-0.0216,-0.0213,-0.0189,-0.02,-0.0188,-0.017,-0.0157,-0.0157,-0.0111,-0.0096,-0.0063,-0.0063,-0.0054,-0.0022,-0.0055,-0.0004,0.0001,0.0005,0.0052,0.0062,-0.0047,-0.0047,-0.0046,-0.0046,0,-0.0239,-0.0249,-0.0254,-0.0259,-0.0251,-0.0257,-0.0235,-0.0224,-0.0209,-0.0191,-0.0162,-0.0128,-0.0098,-0.0088,-0.0077,-0.0036,-0.0023,-0.0017,-0.0005,0.0008,0.0057,0.0068,-0.0048,-0.0048,-0.0047,-0.0047,0,0,-0.0266,-0.0277,-0.028,-0.029,-0.0275,-0.0275,-0.0263,-0.0243,-0.0231,-0.0203,-0.0177,-0.0146,-0.0118,-0.0101,-0.0071,-0.0025,0.0031,-0.0011,-0.0008,0.0032,0.0142,0.0113,0.0122,0.0046,0.0048,0.0049,0.0165,0,-0.0299,-0.0335,-0.0321,-0.0343,-0.0359,-0.0324,-0.0311,-0.0285,-0.0256,-0.0222,-0.0168,-0.0142,-0.0124,-0.0106,-0.0057,0.0007,0.0056,-0.0001,0.0127,0.0131,0.01,0.0132,0.0054,0.0173,0.0175,0.0177,0.0178,0,-0.0339,-0.0356,-0.0391,-0.0388,-0.0389,-0.0393,-0.0361,-0.0346,-0.0284,-0.0257,-0.0205,-0.0163,-0.0091,-0.0082,0.0046,0.0009,0.007,0.0122,0.0128,0.0115,0.012,0.0157,0.0197,0.0196,0.0194,0.0193,0.0192,0,-0.0379,-0.0401,-0.0432,-0.0435,-0.0426,-0.0428,-0.0415,-0.0365,-0.0344,-0.0278,-0.0251,-0.016,-0.0113,-0.0019,0.0079,0.0068,0.0222,0.0223,0.026,0.0259,0.0259,0.0254,0.0313,0.0313,0.0313,0.0313,0.0312,0,-0.0418,-0.0443,-0.0461,-0.048,-0.0502,-0.0475,-0.0475,-0.0443,-0.0386,-0.0355,-0.0276,-0.0226,-0.0097,0.0002,0.0091,0.0207,0.0236,0.0268,0.0289,0.0248,0.024,0.0267,0.026,0.0317,0.0316,0.0315,0.0315,0,-0.0455,-0.047,-0.051,-0.0523,-0.0528,-0.0545,-0.0527,-0.0517,-0.0458,-0.041,-0.039,-0.0265,-0.0136,-0.0006,0.0157,0.0215,0.0331,0.0362,0.0313,0.0329,0.0337,0.0327,0.0426,0.0426,0.0426,0.0426,0.0426,0,-0.0475,-0.0505,-0.055,-0.0576,-0.0589,-0.0606,-0.0608,-0.0563,-0.0538,-0.0433,-0.0404,-0.0277,-0.0187,0.0037,0.0161,0.034,0.0349,0.041,0.0368,0.0338,0.035,0.034,0.0331,0.0426,0.0426,0.0426,0.0426,0,-0.0509,-0.0534,-0.0565,-0.062,-0.065,-0.0669,-0.0666,-0.0649,-0.0576,-0.0531,-0.0403,-0.0279,-0.0133,0.0033,0.0168,0.029,0.0373,0.0411,0.0411,0.0372,0.034,0.0349,0.034,0.0426,0.0426,0.0426,0.0426,0,-0.0533,-0.0567,-0.0611,-0.0651,-0.0696,-0.0709,-0.0705,-0.0654,-0.0615,-0.0487,-0.0449,-0.0279,-0.0173,0.0008,0.0135,0.025,0.0271,0.0297,0.0304,0.0306,0.0222,0.0159,0.0218,0,0,0,0,0,-0.0546,-0.0582,-0.063,-0.068,-0.0723,-0.0736,-0.0725,-0.0702,-0.0636,-0.0552,-0.0492,-0.0352,-0.0143,-0.0042,0.0069,0.0113,0.0273,0.0243,0.0301,0.0426,0.0426,0.0343,0,0,0,0,0,0,-0.0559,-0.061,-0.0632,-0.0686,-0.0718,-0.0754,-0.0746,-0.0702,-0.0635,-0.0553,-0.0436,-0.035,-0.0146,-0.0213,0.0061,0.0098,0.0145,0.035,0.0352,0.0426,0.0426,0.0426,0.0341,0,0,0,0,0]}]]